| time (UTC) | temp F | wind direction | speed knots | gust knots | rain 1hr in | rain 24hr in | rain mn in | humidity % | barometer mb |
| 20260507093018 | 54 | 281 | 0.0 | 1.7 | 0.00 | 0.00 | 0.00 | 79 | 1022.2 |
| 20260507091524 | 54 | 286 | 0.0 | 1.7 | 0.00 | 0.00 | 0.00 | 78 | 1022.4 |
| 20260507090026 | 54 | 281 | 0.9 | 1.7 | 0.00 | 0.00 | 0.00 | 79 | 1022.5 |
| 20260507084513 | 54 | 331 | 0.9 | 1.7 | 0.00 | 0.00 | 0.00 | 78 | 1022.5 |
| 20260507083016 | 54 | 337 | 0.9 | 1.7 | 0.00 | 0.00 | 0.00 | 78 | 1022.5 |
| 20260507081534 | 54 | 275 | 0.0 | 2.6 | 0.00 | 0.00 | 0.00 | 78 | 1022.4 |
| 20260507080022 | 55 | 349 | 1.7 | 5.2 | 0.00 | 0.00 | 0.00 | 78 | 1022.4 |
| 20260507074544 | 55 | 360 | 1.7 | 4.3 | 0.00 | 0.00 | 0.00 | 77 | 1022.4 |
| 20260507073014 | 55 | 5 | 1.7 | 4.3 | 0.00 | 0.00 | 0.00 | 78 | 1022.3 |
| 20260507071520 | 55 | 350 | 1.7 | 3.5 | 0.00 | 0.00 | 0.00 | 79 | 1022.3 |
| 20260507070024 | 54 | 18 | 0.0 | 1.7 | 0.00 | 0.00 | 0.00 | 82 | 1022.3 |
| 20260507064524 | 54 | 109 | 0.0 | 1.7 | 0.00 | 0.00 | 0.00 | 84 | 1022.2 |
| 20260507063019 | 54 | 61 | 0.0 | 1.7 | 0.00 | 0.00 | 0.00 | 84 | 1022.2 |
| 20260507061518 | 54 | 104 | 0.9 | 1.7 | 0.00 | 0.00 | 0.00 | 83 | 1022.2 |
| 20260507060020 | 54 | 120 | 0.0 | 2.6 | 0.00 | 0.00 | 0.00 | 83 | 1022.2 |
| 20260507054526 | 54 | 105 | 0.0 | 1.7 | 0.00 | 0.00 | 0.00 | 82 | 1022.1 |
| 20260507053027 | 55 | 121 | 0.9 | 3.5 | 0.00 | 0.00 | 0.00 | 81 | 1022.0 |
| 20260507051512 | 55 | 317 | 0.0 | 1.7 | 0.00 | 0.00 | 0.00 | 83 | 1022.0 |
| 20260507050025 | 55 | 290 | 0.0 | 1.7 | 0.00 | 0.00 | 0.00 | 83 | 1022.0 |
| 20260507044523 | 54 | 290 | 0.0 | 0.9 | 0.00 | 0.00 | 0.00 | 82 | 1022.0 |
| 20260507043024 | 54 | 294 | 0.0 | 1.7 | 0.00 | 0.00 | 0.00 | 81 | 1021.8 |
| 20260507041526 | 55 | 138 | 0.0 | 1.7 | 0.00 | 0.00 | 0.00 | 80 | 1021.8 |
| 20260507040016 | 55 | 44 | 0.0 | 1.7 | 0.00 | 0.00 | 0.00 | 79 | 1021.5 |
| 20260507034520 | 56 | 26 | 0.9 | 1.7 | 0.00 | 0.00 | 0.00 | 78 | 1021.2 |
| 20260507033025 | 58 | 67 | 0.0 | 1.7 | 0.00 | 0.00 | 0.00 | 75 | 1021.0 |
| 20260507031527 | 59 | 110 | 0.0 | 1.7 | 0.00 | 0.00 | 0.00 | 73 | 1020.9 |
| 20260507030026 | 60 | 109 | 0.9 | 2.6 | 0.00 | 0.00 | 0.00 | 71 | 1020.9 |
| 20260507024516 | 62 | 134 | 0.0 | 3.5 | 0.00 | 0.00 | 0.00 | 69 | 1020.7 |
| 20260507023022 | 63 | 42 | 0.9 | 1.7 | 0.00 | 0.00 | 0.00 | 69 | 1020.6 |
| 20260507021524 | 64 | 106 | 0.9 | 6.1 | 0.00 | 0.00 | 0.00 | 66 | 1020.7 |
| 20260507020026 | 65 | 77 | 2.6 | 6.1 | 0.00 | 0.00 | 0.00 | 63 | 1020.6 |
| 20260507014523 | 66 | 107 | 0.9 | 7.8 | 0.00 | 0.00 | 0.00 | 64 | 1020.6 |
| 20260507013005 | 67 | 122 | 1.7 | 6.1 | 0.00 | 0.00 | 0.00 | 62 | 1020.6 |
| 20260507011505 | 67 | 119 | 1.7 | 7.0 | 0.00 | 0.00 | 0.00 | 62 | 1020.4 |
| 20260507010012 | 67 | 175 | 2.6 | 7.8 | 0.00 | 0.00 | 0.00 | 62 | 1020.4 |
| 20260507004518 | 68 | 135 | 2.6 | 6.1 | 0.00 | 0.00 | 0.00 | 61 | 1020.2 |
| 20260507003020 | 68 | 78 | 0.9 | 8.7 | 0.00 | 0.00 | 0.00 | 62 | 1020.3 |
| 20260507001504 | 69 | 122 | 2.6 | 7.8 | 0.00 | 0.00 | 0.00 | 60 | 1020.3 |
| 20260507000010 | 70 | 99 | 2.6 | 6.1 | 0.00 | 0.00 | 0.00 | 58 | 1020.2 |
| 20260506234515 | 71 | 49 | 0.9 | 5.2 | 0.00 | 0.00 | 0.00 | 58 | 1020.2 |
| 20260506233018 | 70 | 99 | 0.9 | 7.0 | 0.00 | 0.00 | 0.00 | 60 | 1020.2 |
| 20260506231528 | 71 | 89 | 0.9 | 4.3 | 0.00 | 0.00 | 0.00 | 58 | 1020.3 |
| 20260506230007 | 71 | 102 | 0.9 | 5.2 | 0.00 | 0.00 | 0.00 | 59 | 1020.4 |
| 20260506224512 | 71 | 99 | 2.6 | 7.8 | 0.00 | 0.00 | 0.00 | 57 | 1020.5 |
| 20260506223018 | 71 | 112 | 0.9 | 5.2 | 0.00 | 0.00 | 0.00 | 60 | 1020.7 |
| 20260506221522 | 70 | 130 | 2.6 | 7.0 | 0.00 | 0.00 | 0.00 | 58 | 1020.6 |
| 20260506220016 | 70 | 110 | 1.7 | 6.1 | 0.00 | 0.00 | 0.00 | 61 | 1020.6 |
| 20260506214512 | 71 | 67 | 1.7 | 7.8 | 0.00 | 0.00 | 0.00 | 61 | 1020.6 |
| 20260506213016 | 70 | 131 | 2.6 | 7.0 | 0.00 | 0.00 | 0.00 | 64 | 1020.7 |
| 20260506211521 | 70 | 92 | 1.7 | 6.1 | 0.00 | 0.00 | 0.00 | 66 | 1020.8 |
| 20260506210025 | 70 | 64 | 2.6 | 6.1 | 0.00 | 0.00 | 0.00 | 62 | 1021.0 |
| 20260506204511 | 70 | 176 | 1.7 | 7.0 | 0.00 | 0.00 | 0.00 | 63 | 1021.0 |
| 20260506203015 | 69 | 90 | 1.7 | 6.1 | 0.00 | 0.00 | 0.00 | 65 | 1020.8 |
| 20260506201519 | 68 | 157 | 1.7 | 7.8 | 0.00 | 0.00 | 0.00 | 67 | 1021.0 |
| 20260506200021 | 67 | 146 | 2.6 | 9.6 | 0.00 | 0.00 | 0.00 | 66 | 1021.2 |
| 20260506194524 | 67 | 30 | 1.7 | 7.0 | 0.00 | 0.00 | 0.00 | 69 | 1021.3 |
| 20260506193013 | 66 | 97 | 1.7 | 7.0 | 0.00 | 0.00 | 0.00 | 71 | 1021.4 |
| 20260506191517 | 65 | 117 | 1.7 | 6.1 | 0.00 | 0.00 | 0.00 | 71 | 1021.4 |
| 20260506190021 | 64 | 13 | 1.7 | 7.0 | 0.00 | 0.00 | 0.00 | 73 | 1021.4 |
| 20260506184522 | 63 | 93 | 2.6 | 8.7 | 0.00 | 0.00 | 0.00 | 73 | 1021.5 |
| 20260506183026 | 63 | 169 | 1.7 | 7.0 | 0.00 | 0.00 | 0.00 | 76 | 1021.4 |
| 20260506181514 | 63 | 42 | 1.7 | 6.1 | 0.00 | 0.00 | 0.00 | 74 | 1021.6 |
| 20260506180017 | 63 | 295 | 3.5 | 7.8 | 0.00 | 0.00 | 0.00 | 73 | 1021.8 |
| 20260506174521 | 62 | 158 | 1.7 | 7.0 | 0.00 | 0.00 | 0.00 | 76 | 1021.7 |
| 20260506173027 | 61 | 178 | 2.6 | 7.0 | 0.00 | 0.00 | 0.00 | 75 | 1021.5 |
| 20260506171512 | 61 | 46 | 1.7 | 5.2 | 0.00 | 0.00 | 0.00 | 77 | 1021.4 |
| 20260506170021 | 60 | 188 | 0.9 | 3.5 | 0.00 | 0.00 | 0.00 | 81 | 1021.6 |
| 20260506164524 | 57 | 143 | 0.0 | 2.6 | 0.00 | 0.00 | 0.00 | 84 | 1021.8 |
| 20260506163017 | 57 | 206 | 0.0 | 2.6 | 0.00 | 0.00 | 0.00 | 85 | 1021.8 |
| 20260506161511 | 56 | 132 | 0.9 | 3.5 | 0.00 | 0.00 | 0.00 | 84 | 1021.9 |
| 20260506160020 | 56 | 166 | 0.0 | 2.6 | 0.00 | 0.00 | 0.00 | 85 | 1021.7 |
| 20260506154522 | 56 | 180 | 0.9 | 2.6 | 0.00 | 0.00 | 0.00 | 85 | 1021.5 |
| 20260506153025 | 55 | 57 | 0.0 | 3.5 | 0.00 | 0.00 | 0.00 | 86 | 1021.0 |
| 20260506151508 | 54 | 109 | 0.9 | 2.6 | 0.00 | 0.00 | 0.00 | 88 | 1021.6 |
| 20260506150015 | 53 | 110 | 0.0 | 1.7 | 0.00 | 0.00 | 0.00 | 89 | 1021.7 |
| 20260506144523 | 53 | 128 | 0.0 | 1.7 | 0.00 | 0.00 | 0.00 | 90 | 1021.6 |
| 20260506143028 | 52 | 116 | 0.0 | 1.7 | 0.00 | 0.00 | 0.00 | 91 | 1021.5 |
| 20260506141526 | 52 | 138 | 0.9 | 1.7 | 0.00 | 0.00 | 0.00 | 91 | 1021.1 |
| 20260506140013 | 51 | 119 | 0.0 | 1.7 | 0.00 | 0.00 | 0.00 | 92 | 1020.8 |
| 20260506134520 | 51 | 86 | 0.0 | 1.7 | 0.00 | 0.00 | 0.00 | 92 | 1020.4 |
| 20260506133025 | 51 | 119 | 0.0 | 1.7 | 0.00 | 0.00 | 0.00 | 91 | 1020.4 |
| 20260506131524 | 52 | 119 | 0.0 | 0.0 | 0.00 | 0.00 | 0.00 | 90 | 1020.3 |
| 20260506130012 | 52 | 119 | 0.0 | 1.7 | 0.00 | 0.00 | 0.00 | 90 | 1020.2 |
| 20260506124516 | 53 | 119 | 0.0 | 1.7 | 0.00 | 0.00 | 0.00 | 90 | 1020.2 |
| 20260506123020 | 53 | 64 | 0.0 | 1.7 | 0.00 | 0.00 | 0.00 | 89 | 1020.0 |
| 20260506121523 | 54 | 64 | 0.9 | 1.7 | 0.00 | 0.00 | 0.00 | 89 | 1020.0 |
| 20260506120027 | 54 | 70 | 0.0 | 1.7 | 0.00 | 0.00 | 0.00 | 89 | 1020.1 |
| 20260506114517 | 53 | 59 | 0.0 | 1.7 | 0.00 | 0.00 | 0.00 | 89 | 1019.9 |
| 20260506113018 | 53 | 138 | 0.0 | 1.7 | 0.00 | 0.00 | 0.00 | 89 | 1019.7 |
| 20260506111523 | 53 | 138 | 0.0 | 1.7 | 0.00 | 0.00 | 0.00 | 89 | 1019.6 |
| 20260506110030 | 53 | 90 | 0.0 | 1.7 | 0.00 | 0.00 | 0.00 | 89 | 1019.4 |
| 20260506104527 | 53 | 122 | 0.9 | 1.7 | 0.00 | 0.00 | 0.00 | 89 | 1019.2 |
| 20260506103018 | 53 | 117 | 0.0 | 1.7 | 0.00 | 0.00 | 0.00 | 89 | 1019.0 |
| 20260506101520 | 53 | 194 | 0.9 | 1.7 | 0.00 | 0.00 | 0.00 | 89 | 1018.9 |
| 20260506100023 | 53 | 88 | 0.0 | 2.6 | 0.00 | 0.00 | 0.00 | 89 | 1018.8 |
| 20260506094526 | 53 | 74 | 0.0 | 1.7 | 0.00 | 0.00 | 0.00 | 89 | 1018.8 |